Location: Berg
(48.8000°N, 9.2167°E)
Time: 17:04:15
(UTC+00:00)

Daily predictions for brighter satellites

Satellite Brightness Start Highest point End
(mag) Time Altitude Azimuth Time Altitude Azimuth Time Altitude Azimuth
SJ-12 3.7 17:05:59 10° SSE 17:09:47 88° E 17:13:37 10° NNW
Meteor 1-28 Rocket 4.3 17:07:16 10° N 17:10:26 42° WNW 17:13:34 10° SW
Cosmos 2322 4.0 17:05:55 10° NNW 17:11:39 80° WSW 17:17:22 10° SSE
USA 234 3.6 17:08:36 10° SE 17:15:09 73° SW 17:21:44 10° WNW
SL-16 R/B 3.5 17:13:06 10° N 17:17:18 21° NE 17:21:28 10° E
Cosmos 2227 Rocket 3.6 17:14:42 10° SE 17:18:11 17° E 17:21:40 10° ENE
AQUARIUS 4.4 17:14:25 10° S 17:18:48 75° WSW 17:23:14 10° NNW
Cosmos 1315 Rocket 2.9 17:15:23 10° NNW 17:19:11 78° WSW 17:22:58 10° S
Cosmos 1674 Rocket 3.5 17:15:20 10° S 17:19:41 68° E 17:24:06 10° NNE
Spot 4 Rocket 4.3 17:14:57 10° SE 17:19:46 44° ENE 17:24:36 10° N
SAR-Lupe-5 4.0 17:17:25 10° NNE 17:19:55 73° ESE 17:22:20 10° S
Tiangong 0.4 17:19:19 10° S 17:20:40 12° SSE 17:22:00 10° SE
Cosmos 2242 Rocket 4.3 17:17:45 10° SSW 17:22:03 58° WNW 17:26:24 10° N
Cosmos 2016 Rocket 4.2 17:16:48 10° NNW 17:23:03 79° W 17:29:21 10° S
ARIANE 5 R/B 3.1 17:19:44 10° S 17:24:48 65° WSW 17:29:51 10° NNW
SAR-Lupe-4 3.5 17:21:58 10° SSE 17:25:31 74° ENE 17:29:06 10° N
NOSS 3-3 (A) 3.7 17:21:40 10° SSW 17:26:49 79° SE 17:33:03 10° NE
CARTOSAT-1 4.0 17:24:34 10° SE 17:28:26 37° ENE 17:32:20 10° N
Cosmos 2285 Rocket 4.0 17:30:43 10° NNW 17:37:11 76° ENE 17:43:34 10° SSE
Cosmos 2233 Rocket 4.2 17:31:09 10° N 17:37:26 82° W 17:43:45 10° S
USA 290 4.0 17:35:00 10° SW 17:37:55 32° WNW 17:40:51 10° N
NOSS 0 Rocket 4.2 17:33:33 10° NNW 17:39:48 75° WSW 17:46:00 10° SSE
USA 306 4.1 17:39:21 10° W 17:41:17 17° SW 17:42:45 10° S
CZ-4 R/B 3.4 17:42:57 10° NE 17:42:57 10° NE 17:42:59 10° NE
ARIANE 6 FM1 Upper Stage 4.0 17:39:57 10° NNW 17:43:04 22° NNE 17:45:03 15° ENE
NOSS 3-4 (A) 3.8 17:39:15 10° NW 17:45:50 67° NE 17:53:36 10° SE
NOSS 3-4 (C) 3.8 17:39:31 10° NW 17:46:07 66° NE 17:53:54 10° SE
Cosmos 2150 Rocket 4.3 17:43:00 10° NNW 17:47:55 42° ENE 17:52:47 10° SE
Cosmos 2298 Rocket 4.4 17:46:03 10° NNW 17:51:06 43° ENE 17:56:08 10° SE
Radarsat Rocket 4.0 17:48:45 10° SSE 17:54:37 84° ENE 18:01:01 10° NNW
Cosmos 1607 4.5 17:50:03 10° SW 17:56:05 59° NW 18:02:14 10° NE
Helios 1A Rocket 4.3 17:58:04 15° SE 17:58:04 15° SE 17:59:00 10° SE
Cosmos 1455 Rocket 2.9 17:53:20 10° N 17:57:37 66° ENE 18:01:53 10° SSE
YAOGAN 3 4.5 17:53:53 10° SSE 17:58:02 61° ENE 18:02:12 10° N
YAOGAN 1 2.9 17:54:54 10° S 17:59:08 68° WSW 18:03:23 10° NNW
Cosmos 44 Rocket 3.7 17:54:48 10° S 17:59:27 45° ESE 18:03:11 16° NE
Cosmos 1975 Rocket 3.6 17:55:42 10° SSE 17:59:39 35° E 18:03:35 10° NNE
PSLV R/B 3.3 17:55:47 10° SSE 17:59:54 80° ENE 18:04:01 10° NNW
Cosmos 2228 3.3 17:56:33 10° N 18:00:31 40° ENE 18:04:30 10° SE
COSMO-SKYMED 1 2.3 17:56:28 10° NNE 18:00:37 79° ESE 18:04:42 10° S
ATLAS 2AS CENTAUR R/B 4.2 17:56:31 10° WNW 18:02:05 25° NNW 18:07:35 10° NE
Cosmos 2297 Rocket 2.1 17:56:29 10° SSW 18:02:08 78° ESE 18:07:50 10° NNE
Cosmos 1782 3.3 17:59:10 10° N 18:02:20 29° ENE 18:03:11 26° E
Lacrosse 5 rocket 2.6 18:01:19 10° WNW 18:04:19 25° NNW 18:06:24 16° NE
DNEPR-1 R/B 4.0 18:00:55 10° NNW 18:05:39 59° NE 18:10:09 16° ESE
IRAS Rocket 4.3 18:02:00 10° SE 18:07:30 60° ENE 18:13:03 10° N
Aureole 3 Rocket 2.9 18:04:06 10° NNW 18:08:01 65° W 18:11:10 10° S
CZ-2D R/B 3.9 18:05:07 10° S 18:08:58 59° WSW 18:12:57 10° NNW
Okean 1 Rocket 4.3 18:08:40 10° NNW 18:12:51 44° W 18:16:59 10° SSW
CZ-4C R/B 2.8 18:09:36 10° WSW 18:13:53 45° NW 18:19:22 10° NE
Cosmos 1464 Rocket 4.0 18:11:09 10° N 18:17:29 64° ENE 18:23:44 10° SSE
Meteor 2-17 Rocket 4.3 18:13:39 10° S 18:19:39 68° E 18:25:40 10° NNE
Cosmos 2344 3.9 18:12:32 10° S 18:19:45 38° ESE 18:23:43 22° ENE
Cosmos 1602 3.8 18:17:35 10° S 18:19:21 33° SSE 18:19:21 33° SSE
USA 267 3.7 18:15:08 16° NE 18:20:24 57° NNW 18:26:46 10° W
ERS-1 Rocket 4.3 18:22:18 20° NE 18:22:18 20° NE 18:25:15 10° NNE
SJ-6B 2.3 18:20:24 10° SSE 18:23:49 72° ENE 18:27:15 10° N
CZ-4B R/B 4.1 18:28:24 44° E 18:28:37 44° ENE 18:32:20 10° N
ODIN 4.5 18:28:50 49° SSE 18:29:34 80° ENE 18:32:41 10° N
Cosmos 2263 Rocket 2.7 18:25:26 10° S 18:30:34 36° ESE 18:31:44 33° E
Meteor 1-31 Rocket 3.7 18:36:37 29° NNE 18:36:37 29° NNE 18:38:33 10° N
Cosmos 2237 Rocket 3.2 18:30:43 10° NW 18:36:10 48° WSW 18:41:36 10° S
ADEOS 4.3 18:43:00 33° NE 18:43:00 33° NE 18:47:07 10° N
Resurs 01 Rocket 2.4 18:38:55 10° S 18:43:12 52° W 18:47:31 10° NNW
Cosmos 1570 Rocket 4.5 18:38:14 10° SW 18:43:27 62° WNW 18:48:41 10° NNE
SPOT 5 2.9 18:45:52 41° SE 18:47:25 62° ENE 18:52:27 10° N
Tiangong 0.3 18:54:25 10° SW 18:55:41 17° SSW 18:55:41 17° SSW
Cosmos 2227 Rocket 2.1 18:55:48 10° SSW 19:01:26 85° WNW 19:05:16 22° NNE
Cosmos 783 Rocket 4.3 18:56:42 10° SSW 19:01:56 72° ESE 19:03:04 54° NE
SL-16 R/B 2.1 18:56:33 10° NNW 19:02:15 85° ENE 19:03:58 47° SSE
Cosmos 1346 Rocket 3.8 19:00:36 10° SSW 19:02:49 34° SSW 19:02:49 34° SSW
Tsikada Rocket 3.9 19:01:49 10° S 19:07:49 60° E 19:13:54 10° NNE
CZ-4 R/B 3.2 19:17:56 21° NNW 19:17:56 21° NNW 19:19:17 10° NNW
Okean O Rocket 4.2 19:20:31 11° N 19:20:31 11° N 19:20:39 10° N
ARIANE 6 FM1 Upper Stage 3.8 19:18:34 10° NW 19:21:05 38° NW 19:21:05 38° NW
CZ-4B R/B 3.5 19:26:09 52° N 19:26:09 52° N 19:30:13 10° N
Gbstr 26 Del rocket 4.3 19:19:06 10° SW 19:25:59 62° SE 19:26:28 61° SE
Terra 3.5 19:30:49 24° N 19:30:49 24° N 19:32:42 10° N
CZ-4B DEB 4.2 19:29:06 69° SSW 19:29:43 78° WSW 19:35:12 10° NNW
Cosmos 1544 Rocket 4.4 19:25:59 10° NNW 19:30:03 48° W 19:30:03 48° W
CSL-04 Rocket 4.3 19:35:11 33° SSW 19:37:15 51° W 19:42:25 10° NNW
MOS 1 4.4 19:41:22 71° NNW 19:41:22 71° NNW 19:46:26 10° NNW
Lacrosse 5 rocket 3.9 19:39:03 10° NW 19:39:50 14° NW 19:39:50 14° NW
Cosmos 1634 Rocket 3.9 19:36:21 10° N 19:42:42 83° W 19:43:03 79° SW
Cosmos 2297 Rocket 4.2 19:42:16 10° W 19:46:49 24° NW 19:51:23 10° N
Cosmos 1943 3.9 19:44:28 10° NNW 19:48:32 47° NNW 19:48:32 47° NNW
ATLAS 2AS CENTAUR R/B 4.0 19:49:41 10° NW 19:55:15 26° NNE 19:55:21 26° NNE
BREEZE-M DEB (TANK) 3.8 19:42:01 10° W 19:56:30 71° SSW 19:56:30 71° SSW
ERS-1 Rocket 4.5 20:02:08 31° NNW 20:02:08 31° NNW 20:04:48 10° NNW
USA 267 3.9 20:02:29 43° N 20:02:48 44° N 20:08:55 10° WNW
CZ-4C R/B 4.1 19:59:39 10° WNW 20:03:39 21° N 20:04:22 21° N
BREEZE-M DEB (TANK) 4.3 19:58:32 10° WSW 20:03:44 77° SSE 20:28:07 10° ENE
Cosmos 2263 Rocket 3.3 20:08:59 10° SW 20:13:31 41° WNW 20:13:31 41° WNW
Cosmos 2344 3.9 20:26:26 10° WSW 20:33:47 55° NW 20:33:47 55° NW
Cosmos 2227 Rocket 4.4 20:42:10 10° W 20:46:20 21° NW 20:47:09 20° NNW
